GW4049 Weather Reports


time (UTC)temp
F
wind
direction
speed
knots
gust
knots
rain 1hr
in
rain 24hr
in
rain mn
in
humidity
%
barometer
mb
20260506015641 22 283 0.0 0.0 0.00 0.04 0.04 98 1015.7
20260506015137 22 271 0.0 0.0 0.00 0.04 0.04 98 1015.8
20260506014635 22 297 0.0 0.0 0.00 0.04 0.04 98 1015.6
20260506014130 22 275 0.0 0.0 0.00 0.04 0.04 98 1015.8
20260506013628 22 262 0.0 0.0 0.00 0.04 0.04 98 1015.7
20260506013125 22 261 0.0 0.0 0.00 0.04 0.04 98 1015.7
20260506012621 22 310 0.0 0.0 0.00 0.04 0.04 98 1015.4
20260506012117 23 278 0.0 0.0 0.00 0.04 0.04 98 1015.6
20260506011610 23 313 0.0 0.0 0.00 0.04 0.04 98 1015.6
20260506011106 22 272 0.0 0.0 0.00 0.04 0.04 98 1015.7
20260506010605 22 284 0.0 0.0 0.00 0.04 0.04 98 1015.4
20260506005559 23 271 0.0 0.0 0.00 0.04 0.04 98 1015.8
20260506005055 23 277 0.0 0.0 0.00 0.04 0.04 98 1015.7
20260506004552 23 310 0.0 0.0 0.00 0.04 0.04 98 1015.8
20260506004048 23 271 0.0 0.0 0.00 0.04 0.04 98 1015.4
20260506003545 23 291 0.0 0.0 0.00 0.04 0.04 98 1015.6
20260506003041 23 272 0.0 0.0 0.00 0.04 0.04 98 1015.4
20260506002537 23 268 0.0 0.0 0.00 0.04 0.04 98 1015.7
20260506002033 23 306 2.6 2.6 0.00 0.04 0.04 98 1015.4
20260506001530 24 269 0.0 0.9 0.00 0.04 0.04 98 1015.4
20260506001027 24 293 1.7 5.2 0.00 0.04 0.04 98 1015.3
20260506000525 24 283 0.9 2.6 0.00 0.04 0.04 99 1015.4
20260506000022 24 279 0.0 2.6 0.00 0.04 0.04 99 1015.3
20260505235520 24 301 0.0 0.9 0.00 0.04 0.04 99 1015.4
20260505235016 24 290 1.7 2.6 0.00 0.04 0.04 99 1015.2
20260505234513 24 294 0.9 1.7 0.00 0.04 0.04 99 1015.4
20260505234010 24 299 0.9 0.9 0.00 0.04 0.04 99 1015.3
20260505233508 25 277 0.9 1.7 0.00 0.04 0.04 99 1015.2
20260505233005 25 279 0.9 2.6 0.00 0.04 0.04 99 1015.0
20260505232503 25 288 0.9 3.5 0.00 0.04 0.04 99 1015.2
20260505232000 25 275 0.9 1.7 0.00 0.04 0.04 99 1015.3
20260505231457 25 278 0.0 2.6 0.00 0.04 0.04 99 1015.3
20260505230955 25 282 0.9 2.6 0.00 0.04 0.04 99 1015.2
20260505230452 25 292 3.5 5.2 0.00 0.04 0.04 99 1014.8
20260505225948 25 15 1.7 2.6 0.00 0.04 0.04 99 1014.9
20260505225446 26 341 2.6 5.2 0.00 0.04 0.04 99 1014.9
20260505224942 26 278 3.5 3.5 0.00 0.04 0.04 99 1015.0
20260505224439 26 289 0.9 3.5 0.00 0.04 0.04 99 1014.4
20260505223936 26 30 2.6 2.6 0.00 0.04 0.04 99 1014.9
20260505223433 26 320 0.0 0.9 0.00 0.04 0.04 99 1014.9
20260505222929 26 272 0.0 0.9 0.00 0.04 0.04 99 1015.0
20260505222425 26 287 1.7 2.6 0.00 0.04 0.04 99 1015.2
20260505221921 26 285 1.7 2.6 0.00 0.04 0.04 99 1015.2
20260505221419 26 299 1.7 2.6 0.00 0.04 0.04 99 1014.6
20260505220916 26 187 1.7 5.2 0.00 0.04 0.04 99 1014.6
20260505220413 26 137 2.6 5.2 0.00 0.04 0.04 99 1014.5
20260505215910 27 325 2.6 5.2 0.00 0.04 0.04 99 1014.4
20260505215408 26 333 1.7 2.6 0.00 0.04 0.04 99 1014.8
20260505214906 27 308 1.7 2.6 0.00 0.04 0.04 99 1014.8
20260505214403 26 273 0.9 1.7 0.00 0.04 0.04 99 1014.6
20260505213900 27 64 0.9 2.6 0.00 0.04 0.04 99 1014.6
20260505213358 27 305 0.0 1.7 0.00 0.04 0.04 99 1014.6
20260505212854 27 336 3.5 3.5 0.00 0.04 0.04 99 1014.8
20260505212351 27 265 0.0 5.2 0.00 0.04 0.04 99 1014.9
20260505211847 27 326 0.0 1.7 0.00 0.04 0.04 99 1014.8
20260505211345 28 238 1.7 2.6 0.00 0.04 0.04 99 1014.6
20260505210841 28 318 1.7 3.5 0.00 0.04 0.04 99 1014.9
20260505210338 27 325 3.5 5.2 0.00 0.04 0.04 99 1015.2
20260505205835 26 270 0.9 3.5 0.00 0.04 0.04 99 1015.0
20260505205334 27 351 1.7 2.6 0.00 0.04 0.04 99 1015.0
20260505204830 27 266 0.9 1.7 0.00 0.04 0.04 99 1015.3
20260505204328 27 293 1.7 1.7 0.00 0.04 0.04 99 1015.4
20260505203825 27 346 1.7 3.5 0.00 0.04 0.04 99 1015.6
20260505203321 27 284 0.0 2.6 0.00 0.04 0.04 99 1015.6
20260505202818 27 304 1.7 2.6 0.00 0.04 0.04 99 1015.6
20260505202314 27 255 4.3 5.2 0.00 0.04 0.04 99 1015.7
20260505201811 27 59 3.5 6.1 0.00 0.04 0.04 99 1016.1
20260505201308 27 267 1.7 3.5 0.00 0.04 0.04 99 1015.8
20260505200807 27 47 3.5 6.1 0.00 0.04 0.04 99 1015.8
20260505200303 27 184 2.6 3.5 0.00 0.04 0.04 99 1015.7
20260505195758 26 226 0.9 6.1 0.00 0.04 0.04 99 1015.6
20260505195256 26 118 3.5 7.8 0.00 0.04 0.04 99 1015.8
20260505194753 27 122 1.7 3.5 0.00 0.04 0.04 99 1016.0
20260505194250 27 220 1.7 6.1 0.00 0.04 0.04 99 1016.0
20260505193745 27 261 0.0 7.0 0.00 0.04 0.04 99 1015.6
20260505193243 27 165 1.7 6.1 0.00 0.04 0.04 99 1015.6
20260505192741 28 266 1.7 2.6 0.00 0.04 0.04 99 1015.7
20260505192239 27 90 3.5 3.5 0.00 0.04 0.04 99 1016.0
20260505191737 27 323 0.9 2.6 0.00 0.04 0.04 99 1015.8
20260505191235 27 64 3.5 6.1 0.00 0.04 0.04 99 1016.0
20260505190731 26 101 2.6 6.1 0.00 0.04 0.04 99 1016.0
20260505190231 26 52 2.6 6.1 0.00 0.04 0.04 99 1016.1
20260505185728 27 266 0.9 3.5 0.00 0.04 0.04 99 1016.1
20260505185224 26 249 0.0 5.2 0.00 0.04 0.04 99 1016.2
20260505184720 27 124 1.7 3.5 0.00 0.04 0.04 99 1016.2
20260505184218 27 71 3.5 6.1 0.00 0.04 0.04 99 1016.2
20260505183714 27 147 0.9 3.5 0.00 0.04 0.04 99 1016.1
20260505183212 27 287 2.6 6.1 0.00 0.04 0.04 99 1016.5
20260505182708 27 353 0.9 3.5 0.00 0.04 0.04 99 1016.6
20260505182205 27 19 2.6 5.2 0.00 0.04 0.04 99 1016.4
20260505181701 28 137 2.6 5.2 0.00 0.04 0.04 99 1016.5
20260505181159 26 232 1.7 6.1 0.00 0.04 0.04 99 1016.4
20260505180655 27 238 1.7 3.5 0.00 0.04 0.04 99 1016.4
20260505180153 28 39 1.7 3.5 0.00 0.04 0.04 99 1016.6
20260505175648 27 260 0.0 2.6 0.00 0.04 0.04 99 1016.8
20260505175145 27 334 3.5 5.2 0.00 0.04 0.04 99 1016.6
20260505174642 27 20 1.7 3.5 0.00 0.04 0.04 99 1016.8
20260505174137 27 122 4.3 7.0 0.00 0.04 0.04 99 1016.8
20260505173635 27 218 2.6 5.2 0.00 0.04 0.04 99 1016.6
20260505173131 27 327 1.7 3.5 0.00 0.04 0.04 99 1016.9
20260505172629 26 68 0.9 3.5 0.00 0.04 0.04 99 1017.0
20260505172126 26 8 4.3 7.0 0.00 0.04 0.04 99 1016.8
20260505171620 26 297 0.9 2.6 0.00 0.04 0.04 99 1016.8
20260505171118 27 236 0.9 2.6 0.00 0.04 0.04 99 1016.9
20260505170615 26 283 0.0 5.2 0.00 0.04 0.04 99 1016.9
20260505170111 27 102 3.5 6.1 0.00 0.04 0.04 99 1017.1
20260505165606 26 2 1.7 2.6 0.00 0.04 0.04 99 1016.9
20260505165102 26 314 3.5 6.1 0.00 0.04 0.04 99 1017.1
20260505164558 27 347 2.6 3.5 0.00 0.04 0.04 99 1017.0
20260505164056 26 299 0.9 3.5 0.00 0.04 0.04 99 1017.3
20260505163554 26 127 2.6 2.6 0.05 0.04 0.04 99 1017.1
20260505163051 26 251 0.9 1.7 0.05 0.04 0.04 99 1017.3
20260505162544 26 307 2.6 2.6 0.07 0.03 0.03 99 1017.3
20260505162041 26 296 1.7 3.5 0.07 0.03 0.03 99 1017.5
20260505161538 26 268 0.0 0.9 0.12 0.02 0.02 99 1017.4
20260505161035 26 290 0.9 2.6 0.12 0.02 0.02 99 1017.5
20260505160533 27 325 0.9 2.6 0.00 0.00 0.00 99 1017.3
20260505153003 26 294 0.0 2.6 0.00 0.00 0.00 99 1017.4
20260505152501 27 94 1.7 2.6 0.00 0.00 0.00 99 1017.4
20260505151955 27 215 0.9 0.9 0.00 0.00 0.00 99 1017.3
20260505151445 27 305 1.7 2.6 0.00 0.00 0.00 99 1017.4
20260505150942 27 335 1.7 3.5 0.00 0.00 0.00 99 1017.1
20260505150434 26 283 0.0 1.7 0.00 0.00 0.00 99 1017.7
20260505140403 26 279 0.0 2.6 0.00 0.00 0.00 99 1017.8
20260505124811 26 296 1.7 2.6 0.00 0.00 0.00 99 1017.3
20260505124308 27 276 0.9 1.7 0.00 0.00 0.00 99 1017.0
20260505123804 27 267 0.0 1.7 0.00 0.00 0.00 99 1017.1
20260505123300 27 294 2.6 3.5 0.00 0.00 0.00 99 1016.9
20260505122756 27 250 1.7 2.6 0.00 0.00 0.00 99 1017.1
20260505122254 27 21 1.7 2.6 0.00 0.00 0.00 99 1017.0
20260505121750 27 277 0.9 2.6 0.00 0.00 0.00 99 1017.4
20260505121247 27 297 0.9 1.7 0.00 0.00 0.00 99 1017.3
20260505120744 27 289 1.7 3.5 0.00 0.00 0.00 99 1017.1
20260505120240 27 287 2.6 5.2 0.00 0.00 0.00 99 1017.3
20260505115739 28 282 2.6 3.5 0.00 0.00 0.00 99 1017.1
20260505115236 27 58 2.6 5.2 0.00 0.00 0.00 99 1017.0
20260505114734 28 355 1.7 5.2 0.00 0.00 0.00 99 1016.9
20260505114229 28 335 2.6 6.1 0.00 0.00 0.00 99 1017.1
20260505113726 28 318 0.9 1.7 0.00 0.00 0.00 99 1016.8
20260505113223 29 345 1.7 3.5 0.00 0.00 0.00 99 1017.0
20260505112719 29 318 0.9 3.5 0.00 0.00 0.00 99 1017.1
20260505112217 29 275 1.7 5.2 0.00 0.00 0.00 99 1017.1
20260505111712 30 255 0.0 1.7 0.00 0.00 0.00 99 1016.8
20260505111208 31 3 5.2 6.1 0.00 0.00 0.00 99 1016.8
20260505110704 31 347 1.7 3.5 0.00 0.00 0.00 99 1016.8
20260505110202 31 1 2.6 2.6 0.00 0.00 0.00 99 1016.5
20260505102137 33 281 0.0 0.0 0.00 0.00 0.00 99 1016.6
20260505101636 33 311 0.0 0.0 0.00 0.00 0.00 99 1016.8
20260505101132 33 292 0.0 0.0 0.00 0.00 0.00 99 1016.6
20260505100628 33 288 0.0 0.0 0.00 0.00 0.00 99 1016.2
20260505100125 33 242 0.0 1.7 0.00 0.00 0.00 99 1016.4
20260505095621 33 266 0.0 0.9 0.00 0.00 0.00 99 1016.5
20260505095118 33 282 0.0 0.9 0.00 0.00 0.00 99 1016.5
20260505094614 33 283 0.9 2.6 0.00 0.00 0.00 99 1016.4
20260505094111 33 270 0.0 0.0 0.00 0.00 0.00 99 1016.8
20260505093607 33 270 0.0 0.0 0.00 0.00 0.00 99 1016.6
20260505093104 33 280 0.0 0.0 0.00 0.00 0.00 99 1016.6
20260505092601 33 297 1.7 1.7 0.00 0.00 0.00 99 1016.9
20260505092100 33 259 0.0 0.0 0.00 0.00 0.00 99 1016.6
20260505091556 33 267 0.0 1.7 0.00 0.00 0.00 99 1016.6
20260505091055 33 275 0.0 0.0 0.00 0.00 0.00 99 1016.8
20260505090552 33 271 0.0 0.0 0.00 0.00 0.00 99 1016.8
20260505090050 33 301 0.0 0.0 0.00 0.00 0.00 99 1016.6
20260505085547 33 292 0.0 0.0 0.00 0.00 0.00 99 1016.6
20260505085046 33 289 0.0 0.0 0.00 0.00 0.00 99 1016.8
20260505084543 33 272 0.0 0.0 0.00 0.00 0.00 99 1016.9
20260505084041 33 264 0.0 0.0 0.00 0.00 0.00 99 1017.1
20260505083538 33 269 0.0 0.0 0.00 0.00 0.00 99 1017.0
20260505083035 33 267 0.0 0.0 0.00 0.00 0.00 99 1017.0
20260505082530 33 262 0.0 0.0 0.00 0.00 0.00 99 1017.1
20260505082027 33 262 0.0 0.0 0.00 0.00 0.00 99 1017.1
20260505081524 33 266 0.0 0.0 0.00 0.00 0.00 99 1017.1
20260505081021 33 266 0.0 0.0 0.00 0.00 0.00 99 1017.1
20260505080517 33 265 0.0 0.0 0.00 0.00 0.00 99 1017.0
20260505080014 33 252 0.0 0.0 0.00 0.00 0.00 99 1017.3
20260505075510 33 253 0.0 0.0 0.00 0.00 0.00 99 1017.4
20260505075007 33 253 0.0 0.0 0.00 0.00 0.00 99 1017.3
20260505074504 33 249 0.0 0.0 0.00 0.00 0.00 99 1017.4
20260505074001 33 251 0.0 0.0 0.00 0.00 0.00 99 1017.5
20260505073459 33 259 0.0 0.0 0.00 0.00 0.00 99 1017.4
20260505072956 33 252 0.0 0.0 0.00 0.00 0.00 99 1017.4
20260505072452 33 248 0.0 0.0 0.00 0.00 0.00 99 1017.5
20260505071948 33 246 0.0 0.0 0.00 0.00 0.00 99 1017.5
20260505071444 33 239 0.0 0.0 0.00 0.00 0.00 99 1017.3
20260505070943 33 255 0.0 0.0 0.00 0.00 0.00 99 1017.7
20260505070439 33 254 0.0 0.0 0.00 0.00 0.00 99 1017.5
20260505065935 33 251 0.0 0.0 0.00 0.00 0.00 99 1017.7
20260505065431 33 258 0.9 2.6 0.00 0.00 0.00 99 1017.7
20260505064928 33 276 1.7 3.5 0.00 0.00 0.00 99 1017.9
20260505064425 33 287 1.7 1.7 0.00 0.00 0.00 99 1017.5
20260505063924 33 294 0.9 1.7 0.00 0.00 0.00 99 1017.9
20260505063420 33 269 0.0 0.9 0.00 0.00 0.00 99 1017.5
20260505062916 33 270 0.0 0.0 0.00 0.00 0.00 99 1017.5
20260505062414 34 301 0.9 1.7 0.00 0.00 0.00 99 1017.5
20260505061910 34 274 0.0 0.0 0.00 0.00 0.00 99 1017.4
20260505061409 34 236 0.0 0.0 0.00 0.00 0.00 99 1017.5
20260505060906 34 254 0.0 0.9 0.00 0.00 0.00 99 1017.5
20260505060402 34 271 0.0 0.0 0.00 0.00 0.00 99 1017.7
20260505055858 34 258 0.0 0.0 0.00 0.22 0.22 99 1017.4
20260505055355 34 277 0.0 0.0 0.00 0.22 0.22 99 1017.7
20260505054852 34 242 0.0 0.0 0.00 0.22 0.22 99 1017.8
20260505054349 34 254 0.0 0.0 0.00 0.22 0.22 99 1017.7
20260505053847 34 242 0.0 0.0 0.00 0.22 0.22 98 1017.7
20260505053344 34 242 0.0 0.0 0.00 0.22 0.22 98 1017.7
20260505052841 34 251 0.0 0.0 0.00 0.22 0.22 98 1017.7
20260505052337 34 257 0.0 0.0 0.00 0.22 0.22 98 1017.9
20260505051834 34 241 0.9 1.7 0.05 0.22 0.22 98 1017.9
20260505051332 34 228 2.6 5.2 0.05 0.22 0.22 98 1017.7
20260505050830 34 242 1.7 2.6 0.00 0.21 0.21 99 1017.7
20260505050329 34 236 1.7 5.2 0.00 0.21 0.21 99 1017.9
20260505041758 34 262 0.9 2.6 0.00 0.21 0.21 99 1018.3
20260505041255 34 240 2.6 3.5 0.00 0.21 0.21 98 1018.2
20260505040753 34 240 0.9 2.6 0.00 0.21 0.21 98 1018.6
20260505040250 34 240 1.7 2.6 0.07 0.21 0.21 98 1018.7
20260505035747 34 240 1.7 5.2 0.07 0.21 0.21 98 1018.3
20260505035242 34 215 2.6 5.2 0.00 0.20 0.20 98 1018.1
20260505034739 34 248 3.5 7.0 0.05 0.20 0.20 97 1018.2
20260505034236 34 168 2.6 7.8 0.12 0.20 0.20 97 1017.8
20260505033733 34 173 7.0 9.6 0.19 0.19 0.19 96 1017.9
20260505033231 34 122 3.5 6.1 0.19 0.18 0.18 97 1018.5
20260505032729 34 236 1.7 3.5 0.19 0.16 0.16 97 1018.5
20260505032224 34 178 3.5 3.5 0.17 0.15 0.15 97 1018.6
20260505031721 34 231 0.9 2.6 0.17 0.13 0.13 97 1018.6
20260505031217 34 240 0.0 0.0 0.12 0.11 0.11 96 1018.7
20260505030714 34 252 0.0 0.0 0.24 0.10 0.10 96 1018.3
20260505030205 34 265 0.0 0.0 0.26 0.08 0.08 95 1018.6
20260505025701 36 254 0.0 0.0 0.26 0.06 0.06 95 1018.6
20260505025200 37 265 0.9 0.9 0.12 0.03 0.03 95 1018.2
20260505024657 37 263 0.9 1.7 0.05 0.02 0.02 94 1018.2
20260505024154 37 261 0.0 1.7 0.00 0.01 0.01 94 1018.5
20260505023652 37 234 1.7 2.6 0.00 0.01 0.01 94 1018.2
20260505023149 37 187 4.3 7.8 0.00 0.01 0.01 93 1018.1
20260505022646 37 254 1.7 5.2 0.00 0.01 0.01 94 1017.9
20260505022143 37 184 3.5 5.2 0.00 0.01 0.01 93 1017.9
20260505021639 37 227 0.9 2.6 0.00 0.01 0.01 92 1017.7
20260505021137 37 50 3.5 5.2 0.00 0.01 0.01 90 1017.5
20260505020632 38 80 0.9 5.2 0.00 0.01 0.01 87 1017.3
20260505020128 38 208 0.0 2.6 0.00 0.01 0.01 86 1017.3